This is the latest recevied weather packets stored in our database for station/object KI4SSU. If no packets are shown the sender has not sent any weather packets the latest 1 day(s).
| Time | Temp. | Humidity | Pressure | Rain* | Wind** | Luminosity | Snow |
|---|---|---|---|---|---|---|---|
| 1836274659 | 27.22° C | - | - | 0 mm | 0 m/s | - | - |
| 1836274568 | 27.22° C | - | - | 0 mm | 0.45 m/s, 106° | - | - |
| 1836274517 | 27.22° C | - | - | 0 mm | 0.45 m/s, 106° | - | - |
| 1836274509 | 27.22° C | - | - | 0 mm | 0.45 m/s, 106° | - | - |
| 1836274364 | 27.22° C | - | - | 0 mm | 0 m/s | - | - |
| 1836274359 | 27.22° C | - | - | 0 mm | 0 m/s | - | - |
| 1836274209 | 27.22° C | - | - | 0 mm | 0 m/s | - | - |
| 1836274059 | 27.22° C | - | - | 0 mm | 0 m/s | - | - |
| 1778047578 | 16.67° C | - | - | 0 mm | 1.34 m/s, 13° | - | - |
| 1778047279 | 16.67° C | - | - | 0 mm | 2.68 m/s, 339° | - | - |
| 1778046978 | 16.67° C | - | - | 0 mm | 1.79 m/s, 359° | - | - |
| 1778046678 | 16.67° C | - | - | 0 mm | 1.79 m/s, 8° | - | - |
| 1778046380 | 16.67° C | - | - | 0 mm | 1.79 m/s, 4° | - | - |
| 1778046078 | 17.22° C | - | - | 0 mm | 1.79 m/s, 342° | - | - |
| 1778045778 | 16.67° C | - | - | 0 mm | 1.34 m/s, 352° | - | - |
| 1778045478 | 17.22° C | - | - | 0 mm | 1.34 m/s, 103° | - | - |
| 1778045179 | 17.22° C | - | - | 0 mm | 2.68 m/s, 344° | - | - |
| 1778044878 | 17.22° C | - | - | 0 mm | 3.58 m/s, 6° | - | - |
| 1778044580 | 17.22° C | - | - | 0 mm | 2.68 m/s, 334° | - | - |
| 1778044278 | 17.78° C | - | - | 0 mm | 1.79 m/s, 359° | - | - |
| 1778043978 | 17.22° C | - | - | 0 mm | 1.79 m/s, 345° | - | - |
| 1778043678 | 17.78° C | - | - | 0 mm | 3.13 m/s, 359° | - | - |
| 1778043378 | 17.78° C | - | - | 0 mm | 2.68 m/s, 128° | - | - |
| 1778043079 | 17.78° C | - | - | 0 mm | 1.34 m/s, 4° | - | - |
| 1778042778 | 18.33° C | - | - | 0 mm | 2.24 m/s, 4° | - | - |
* Rain since midnight (hover to see other rain measurements)
** Current wind speed in m/s (hover to see current wind gust speed)